Minerva Virgo — SXXT — position and weather

sailwx.info

Track history (hours):
 
Tides and Currents Weather Stations Pressure Air Temp Water Temp Dewpoint Dewpoint Depression Visibility Wind Speed Wind Dir Waves Ship Positions

Minerva Virgo

Last reported at 2014-Jul-31 16:18 UTC. Time now 2014-Jul-31 17:33 UTC.
Position N 34°27' E 033°40'.

Length 182 m; draft 12 m.

Type: Tanker. MMSI: 240730000.

Date/timePositionNaut miles runAvg speedWind from/ knotsBaromVisibWave heightAir tempDewpointWater temp
2014-Jul-31 16:18N 34°27' E 033°40'1 1.0
2014-Jul-31 15:33N 34°27' E 033°39'1 1.1
2014-Jul-31 14:33N 34°27' E 033°38'1 1.1
2014-Jul-31 13:33N 34°27' E 033°37'1 1.1
2014-Jul-31 12:18N 34°27' E 033°35'9 0.6
2014-Jul-30 20:30N 34°22' E 033°26'1 0.5
2014-Jul-30 19:30N 34°22' E 033°26'2 1.8
2014-Jul-30 18:33N 34°23' E 033°27'4 3.5
2014-Jul-30 17:24N 34°25' E 033°32'1 0.9
2014-Jul-30 16:33N 34°25' E 033°31'1 0.9
2014-Jul-30 15:33N 34°25' E 033°30'1 0.9
2014-Jul-30 14:33N 34°25' E 033°28'1 0.9
2014-Jul-30 13:33N 34°25' E 033°27'1 0.8
2014-Jul-30 12:33N 34°25' E 033°26'2 0.7
2014-Jul-30 09:33N 34°23' E 033°24'0 0.5
2014-Jul-30 08:33N 34°23' E 033°24'0 0.4
2014-Jul-30 07:33N 34°23' E 033°24'1 0.2
2014-Jul-30 05:03N 34°22' E 033°24'0 0.1
2014-Jul-30 04:30N 34°22' E 033°24'0 0.2
2014-Jul-30 03:33N 34°22' E 033°24'0 0.2
2014-Jul-30 02:33N 34°22' E 033°24'1 0.3
2014-Jul-30 00:03N 34°23' E 033°24'1 0.6
2014-Jul-29 22:30N 34°24' E 033°23'1 0.8
2014-Jul-29 21:33N 34°24' E 033°22'1 0.9
2014-Jul-29 20:33N 34°24' E 033°21'1 1.0
2014-Jul-29 19:33N 34°24' E 033°20'1 1.0
2014-Jul-29 18:30N 34°24' E 033°18'4 3.7
2014-Jul-29 17:33N 34°26' E 033°21'7 7.5
2014-Jul-29 16:33N 34°30' E 033°29'3 2.5
2014-Jul-29 15:32N 34°32' E 033°32'2 0.8
2014-Jul-29 13:17N 34°31' E 033°30'1 0.8
2014-Jul-29 12:17N 34°30' E 033°29'1 0.7
2014-Jul-29 11:05N 34°29' E 033°29'0 0.7
2014-Jul-29 10:32N 34°29' E 033°29'1 0.6
2014-Jul-29 09:32N 34°28' E 033°28'1 0.4
2014-Jul-29 08:19N 34°28' E 033°28'0 0.4
2014-Jul-29 07:32N 34°28' E 033°28'0 0.3
2014-Jul-29 06:29N 34°27' E 033°27'0 0.4
2014-Jul-29 05:32N 34°27' E 033°27'0 0.4
2014-Jul-29 04:32N 34°27' E 033°27'1 0.6
2014-Jul-29 03:05N 34°26' E 033°26'0 0.5
2014-Jul-29 02:32N 34°26' E 033°26'1 0.6
2014-Jul-29 01:32N 34°26' E 033°25'1 0.6
2014-Jul-29 00:32N 34°25' E 033°25'1 0.6
2014-Jul-28 23:32N 34°25' E 033°24'1 0.7
2014-Jul-28 22:14N 34°25' E 033°23'0 0.7
2014-Jul-28 21:32N 34°24' E 033°22'1 0.8
2014-Jul-28 20:31N 34°24' E 033°22'1 0.8
2014-Jul-28 19:32N 34°24' E 033°21'1 0.8
2014-Jul-28 18:32N 34°24' E 033°20'1 1.2
2014-Jul-28 17:33N 34°26' E 033°20'3 3.3
2014-Jul-28 16:32N 34°28' E 033°23'1 0.7
2014-Jul-28 15:32N 34°28' E 033°23'1 0.6
2014-Jul-28 14:17N 34°27' E 033°22'1 0.6
2014-Jul-28 12:32N 34°27' E 033°21'1 0.6
2014-Jul-28 10:29N 34°26' E 033°19'0 0.5
2014-Jul-28 09:32N 34°27' E 033°19'1 1.1
2014-Jul-28 08:32N 34°27' E 033°19'1 0.7
2014-Jul-28 07:29N 34°27' E 033°18'1 0.8
2014-Jul-28 06:32N 34°27' E 033°17'1 0.8
2014-Jul-28 05:32N 34°27' E 033°17'1 0.8
2014-Jul-28 04:32N 34°26' E 033°16'1 1.1
2014-Jul-28 03:33N 34°27' E 033°16'7 7.2
2014-Jul-28 02:34N 34°32' E 033°23'1 0.6
2014-Jul-28 01:23N 34°31' E 033°23'1 0.7
2014-Jul-28 00:29N 34°30' E 033°23'1 0.6
2014-Jul-27 23:32N 34°30' E 033°23'0 0.5
2014-Jul-27 22:32N 34°29' E 033°23'1 0.4
2014-Jul-27 18:32N 34°28' E 033°22'0 0.4
2014-Jul-27 17:26N 34°28' E 033°21'0 0.4
2014-Jul-27 16:23N 34°28' E 033°21'1 0.6
2014-Jul-27 14:05N 34°27' E 033°19'0 0.7
2014-Jul-27 13:23N 34°27' E 033°19'1 0.7
2014-Jul-27 12:20N 34°27' E 033°18'1 0.9
2014-Jul-27 11:11N 34°27' E 033°17'1 1.0
2014-Jul-27 10:32N 34°26' E 033°16'1 0.9
2014-Jul-27 09:32N 34°26' E 033°15'2 2.3
2014-Jul-27 08:33N 34°28' E 033°17'3 3.2
2014-Jul-27 07:34N 34°30' E 033°20'1 1.0
2014-Jul-27 06:34N 34°29' E 033°19'1 0.9
2014-Jul-27 05:33N 34°28' E 033°19'1 0.7
2014-Jul-27 04:32N 34°28' E 033°18'3 3.5
2014-Jul-27 03:33N 34°30' E 033°21'1 0.8
2014-Jul-27 02:31N 34°31' E 033°21'1 0.7
2014-Jul-27 01:28N 34°30' E 033°21'1 0.6
2014-Jul-27 00:31N 34°30' E 033°21'1 0.6
2014-Jul-26 23:31N 34°29' E 033°21'0 0.4
2014-Jul-26 22:31N 34°29' E 033°21'0 0.3
2014-Jul-26 21:28N 34°28' E 033°20'0 0.3
2014-Jul-26 20:31N 34°28' E 033°20'0 0.3
2014-Jul-26 19:31N 34°28' E 033°20'0 0.4
2014-Jul-26 18:28N 34°28' E 033°19'1 0.6
2014-Jul-26 17:28N 34°28' E 033°19'0 0.3
2014-Jul-26 16:22N 34°28' E 033°18'3 4.2
2014-Jul-26 15:34N 34°29' E 033°22'9 8.3
2014-Jul-26 14:27N 34°31' E 033°33'8 8.3
2014-Jul-26 13:32N 34°33' E 033°42'6 0.5
2014-Jul-26 02:18N 34°31' E 033°36'2 0.6
2014-Jul-25 23:30N 34°30' E 033°34'0 0.2
2014-Jul-25 22:12N 34°30' E 033°34'0 0.2
2014-Jul-25 21:09N 34°30' E 033°34'0 0.4
2014-Jul-25 20:15N 34°30' E 033°33'0 0.5
2014-Jul-25 19:21N 34°30' E 033°33'1 0.7
2014-Jul-25 18:33N 34°31' E 033°32'1 0.8
2014-Jul-25 17:33N 34°31' E 033°32'1 1.0
2014-Jul-25 16:33N 34°31' E 033°30'3 1.1
2014-Jul-25 14:12N 34°31' E 033°27'2 1.2
2014-Jul-25 12:24N 34°30' E 033°25'1 1.2
2014-Jul-25 11:33N 34°30' E 033°23'1 1.2
2014-Jul-25 10:24N 34°29' E 033°22'1 1.1
2014-Jul-25 09:33N 34°29' E 033°21'1 0.8
2014-Jul-25 08:33N 34°29' E 033°22'5 5.1
2014-Jul-25 07:31N 34°32' E 033°27'3 0.7
2014-Jul-25 03:25N 34°30' E 033°25'0 0.5
2014-Jul-25 02:31N 34°29' E 033°25'0 0.4
2014-Jul-25 01:31N 34°29' E 033°24'0 0.4
2014-Jul-25 00:28N 34°29' E 033°24'0 0.3
2014-Jul-24 23:31N 34°29' E 033°24'0 0.4
2014-Jul-24 22:31N 34°30' E 033°23'1 0.5
2014-Jul-24 21:28N 34°30' E 033°23'1 0.6
2014-Jul-24 20:31N 34°30' E 033°22'1 0.8
2014-Jul-24 19:31N 34°30' E 033°21'1 0.8
2014-Jul-24 18:22N 34°30' E 033°20'1 1.1
2014-Jul-24 17:31N 34°30' E 033°19'3 2.8
2014-Jul-24 16:33N 34°30' E 033°22'7 7.4
2014-Jul-24 15:33N 34°31' E 033°31'0 0.3
2014-Jul-24 14:24N 34°32' E 033°31'4 1.7
2014-Jul-24 12:12N 34°31' E 033°27'2 1.4
2014-Jul-24 10:30N 34°31' E 033°24'1 1.2
2014-Jul-24 09:24N 34°30' E 033°23'1 1.0
2014-Jul-24 08:30N 34°30' E 033°22'1 0.8
2014-Jul-24 07:33N 34°29' E 033°21'1 0.6
2014-Jul-24 06:33N 34°29' E 033°20'1 1.3
2014-Jul-24 05:31N 34°28' E 033°19'7 7.7
2014-Jul-24 04:33N 34°26' E 033°10'1211.9
2014-Jul-24 03:33N 34°25' E 032°56'1311.6
2014-Jul-24 02:28N 34°25' E 032°41'1111.7
2014-Jul-24 01:33N 34°25' E 032°28'1211.8
2014-Jul-24 00:33N 34°28' E 032°14'17212.1
2014-Jul-23 10:21N 35°22' E 028°55'2111.8
2014-Jul-23 08:33N 35°29' E 028°30'1211.8
2014-Jul-23 07:30N 35°32' E 028°15'1111.4
2014-Jul-23 06:33N 35°36' E 028°03'1211.4
2014-Jul-23 05:30N 35°39' E 027°49'2611.8
2014-Jul-23 03:17N 35°56' E 027°24'2112.0
2014-Jul-23 01:31N 36°11' E 027°06'1211.9
2014-Jul-23 00:30N 36°20' E 026°55'1211.8
2014-Jul-22 23:27N 36°30' E 026°46'1111.9
2014-Jul-22 22:29N 36°39' E 026°38'1111.7
2014-Jul-22 21:32N 36°47' E 026°28'1412.0
2014-Jul-22 20:22N 36°55' E 026°14'911.6
2014-Jul-22 19:33N 37°04' E 026°09'1211.6
2014-Jul-22 18:33N 37°15' E 026°04'1211.8
2014-Jul-22 17:33N 37°24' E 025°54'1211.8
2014-Jul-22 16:33N 37°34' E 025°46'1212.0
2014-Jul-22 15:33N 37°45' E 025°42'1211.7
2014-Jul-22 14:33N 37°56' E 025°37'1211.9
2014-Jul-22 13:32N 38°08' E 025°32'1211.8
2014-Jul-22 12:33N 38°18' E 025°26'1212.0
2014-Jul-22 11:33N 38°29' E 025°19'1511.8
2014-Jul-22 10:19N 38°43' E 025°23'6012.0
2014-Jul-22 05:18N 39°41' E 025°45'912.2
2014-Jul-22 04:33N 39°50' E 025°48'1312.3
2014-Jul-22 03:31N 40°00' E 025°57'1212.1
2014-Jul-22 02:33N 40°02' E 026°13'1210.0
2014-Jul-22 01:19N 40°12' E 026°23'1212.5
2014-Jul-22 00:20N 40°19' E 026°36'1310.0
2014-Jul-21 23:05N 40°27' E 026°48'  
Track history (hours):
 
Tides and Currents Weather Stations Pressure Air Temp Water Temp Dewpoint Dewpoint Depression Visibility Wind Speed Wind Dir Waves Ship Positions

Minerva Virgo

Last reported at 2014-Jul-31 16:18 UTC. Time now 2014-Jul-31 17:33 UTC.
Position N 34°27' E 033°40'.

Length 182 m; draft 12 m.

Type: Tanker. MMSI: 240730000.

Date/timePositionNaut miles runAvg speedWind from/ knotsBaromVisibWave heightAir tempDewpointWater temp
2014-Jul-31 16:18N 34°27' E 033°40'1 1.0
2014-Jul-31 15:33N 34°27' E 033°39'1 1.1
2014-Jul-31 14:33N 34°27' E 033°38'1 1.1
2014-Jul-31 13:33N 34°27' E 033°37'1 1.1
2014-Jul-31 12:18N 34°27' E 033°35'9 0.6
2014-Jul-30 20:30N 34°22' E 033°26'1 0.5
2014-Jul-30 19:30N 34°22' E 033°26'2 1.8
2014-Jul-30 18:33N 34°23' E 033°27'4 3.5
2014-Jul-30 17:24N 34°25' E 033°32'1 0.9
2014-Jul-30 16:33N 34°25' E 033°31'1 0.9
2014-Jul-30 15:33N 34°25' E 033°30'1 0.9
2014-Jul-30 14:33N 34°25' E 033°28'1 0.9
2014-Jul-30 13:33N 34°25' E 033°27'1 0.8
2014-Jul-30 12:33N 34°25' E 033°26'2 0.7
2014-Jul-30 09:33N 34°23' E 033°24'0 0.5
2014-Jul-30 08:33N 34°23' E 033°24'0 0.4
2014-Jul-30 07:33N 34°23' E 033°24'1 0.2
2014-Jul-30 05:03N 34°22' E 033°24'0 0.1
2014-Jul-30 04:30N 34°22' E 033°24'0 0.2
2014-Jul-30 03:33N 34°22' E 033°24'0 0.2
2014-Jul-30 02:33N 34°22' E 033°24'1 0.3
2014-Jul-30 00:03N 34°23' E 033°24'1 0.6
2014-Jul-29 22:30N 34°24' E 033°23'1 0.8
2014-Jul-29 21:33N 34°24' E 033°22'1 0.9
2014-Jul-29 20:33N 34°24' E 033°21'1 1.0
2014-Jul-29 19:33N 34°24' E 033°20'1 1.0
2014-Jul-29 18:30N 34°24' E 033°18'4 3.7
2014-Jul-29 17:33N 34°26' E 033°21'7 7.5
2014-Jul-29 16:33N 34°30' E 033°29'3 2.5
2014-Jul-29 15:32N 34°32' E 033°32'2 0.8
2014-Jul-29 13:17N 34°31' E 033°30'1 0.8
2014-Jul-29 12:17N 34°30' E 033°29'1 0.7
2014-Jul-29 11:05N 34°29' E 033°29'0 0.7
2014-Jul-29 10:32N 34°29' E 033°29'1 0.6
2014-Jul-29 09:32N 34°28' E 033°28'1 0.4
2014-Jul-29 08:19N 34°28' E 033°28'0 0.4
2014-Jul-29 07:32N 34°28' E 033°28'0 0.3
2014-Jul-29 06:29N 34°27' E 033°27'0 0.4
2014-Jul-29 05:32N 34°27' E 033°27'0 0.4
2014-Jul-29 04:32N 34°27' E 033°27'1 0.6
2014-Jul-29 03:05N 34°26' E 033°26'0 0.5
2014-Jul-29 02:32N 34°26' E 033°26'1 0.6
2014-Jul-29 01:32N 34°26' E 033°25'1 0.6
2014-Jul-29 00:32N 34°25' E 033°25'1 0.6
2014-Jul-28 23:32N 34°25' E 033°24'1 0.7
2014-Jul-28 22:14N 34°25' E 033°23'0 0.7
2014-Jul-28 21:32N 34°24' E 033°22'1 0.8
2014-Jul-28 20:31N 34°24' E 033°22'1 0.8
2014-Jul-28 19:32N 34°24' E 033°21'1 0.8
2014-Jul-28 18:32N 34°24' E 033°20'1 1.2
2014-Jul-28 17:33N 34°26' E 033°20'3 3.3
2014-Jul-28 16:32N 34°28' E 033°23'1 0.7
2014-Jul-28 15:32N 34°28' E 033°23'1 0.6
2014-Jul-28 14:17N 34°27' E 033°22'1 0.6
2014-Jul-28 12:32N 34°27' E 033°21'1 0.6
2014-Jul-28 10:29N 34°26' E 033°19'0 0.5
2014-Jul-28 09:32N 34°27' E 033°19'1 1.1
2014-Jul-28 08:32N 34°27' E 033°19'1 0.7
2014-Jul-28 07:29N 34°27' E 033°18'1 0.8
2014-Jul-28 06:32N 34°27' E 033°17'1 0.8
2014-Jul-28 05:32N 34°27' E 033°17'1 0.8
2014-Jul-28 04:32N 34°26' E 033°16'1 1.1
2014-Jul-28 03:33N 34°27' E 033°16'7 7.2
2014-Jul-28 02:34N 34°32' E 033°23'1 0.6
2014-Jul-28 01:23N 34°31' E 033°23'1 0.7
2014-Jul-28 00:29N 34°30' E 033°23'1 0.6
2014-Jul-27 23:32N 34°30' E 033°23'0 0.5
2014-Jul-27 22:32N 34°29' E 033°23'1 0.4
2014-Jul-27 18:32N 34°28' E 033°22'0 0.4
2014-Jul-27 17:26N 34°28' E 033°21'0 0.4
2014-Jul-27 16:23N 34°28' E 033°21'1 0.6
2014-Jul-27 14:05N 34°27' E 033°19'0 0.7
2014-Jul-27 13:23N 34°27' E 033°19'1 0.7
2014-Jul-27 12:20N 34°27' E 033°18'1 0.9
2014-Jul-27 11:11N 34°27' E 033°17'1 1.0
2014-Jul-27 10:32N 34°26' E 033°16'1 0.9
2014-Jul-27 09:32N 34°26' E 033°15'2 2.3
2014-Jul-27 08:33N 34°28' E 033°17'3 3.2
2014-Jul-27 07:34N 34°30' E 033°20'1 1.0
2014-Jul-27 06:34N 34°29' E 033°19'1 0.9
2014-Jul-27 05:33N 34°28' E 033°19'1 0.7
2014-Jul-27 04:32N 34°28' E 033°18'3 3.5
2014-Jul-27 03:33N 34°30' E 033°21'1 0.8
2014-Jul-27 02:31N 34°31' E 033°21'1 0.7
2014-Jul-27 01:28N 34°30' E 033°21'1 0.6
2014-Jul-27 00:31N 34°30' E 033°21'1 0.6
2014-Jul-26 23:31N 34°29' E 033°21'0 0.4
2014-Jul-26 22:31N 34°29' E 033°21'0 0.3
2014-Jul-26 21:28N 34°28' E 033°20'0 0.3
2014-Jul-26 20:31N 34°28' E 033°20'0 0.3
2014-Jul-26 19:31N 34°28' E 033°20'0 0.4
2014-Jul-26 18:28N 34°28' E 033°19'1 0.6
2014-Jul-26 17:28N 34°28' E 033°19'0 0.3
2014-Jul-26 16:22N 34°28' E 033°18'3 4.2
2014-Jul-26 15:34N 34°29' E 033°22'9 8.3
2014-Jul-26 14:27N 34°31' E 033°33'8 8.3
2014-Jul-26 13:32N 34°33' E 033°42'6 0.5
2014-Jul-26 02:18N 34°31' E 033°36'2 0.6
2014-Jul-25 23:30N 34°30' E 033°34'0 0.2
2014-Jul-25 22:12N 34°30' E 033°34'0 0.2
2014-Jul-25 21:09N 34°30' E 033°34'0 0.4
2014-Jul-25 20:15N 34°30' E 033°33'0 0.5
2014-Jul-25 19:21N 34°30' E 033°33'1 0.7
2014-Jul-25 18:33N 34°31' E 033°32'1 0.8
2014-Jul-25 17:33N 34°31' E 033°32'1 1.0
2014-Jul-25 16:33N 34°31' E 033°30'3 1.1
2014-Jul-25 14:12N 34°31' E 033°27'2 1.2
2014-Jul-25 12:24N 34°30' E 033°25'1 1.2
2014-Jul-25 11:33N 34°30' E 033°23'1 1.2
2014-Jul-25 10:24N 34°29' E 033°22'1 1.1
2014-Jul-25 09:33N 34°29' E 033°21'1 0.8
2014-Jul-25 08:33N 34°29' E 033°22'5 5.1
2014-Jul-25 07:31N 34°32' E 033°27'3 0.7
2014-Jul-25 03:25N 34°30' E 033°25'0 0.5
2014-Jul-25 02:31N 34°29' E 033°25'0 0.4
2014-Jul-25 01:31N 34°29' E 033°24'0 0.4
2014-Jul-25 00:28N 34°29' E 033°24'0 0.3
2014-Jul-24 23:31N 34°29' E 033°24'0 0.4
2014-Jul-24 22:31N 34°30' E 033°23'1 0.5
2014-Jul-24 21:28N 34°30' E 033°23'1 0.6
2014-Jul-24 20:31N 34°30' E 033°22'1 0.8
2014-Jul-24 19:31N 34°30' E 033°21'1 0.8
2014-Jul-24 18:22N 34°30' E 033°20'1 1.1
2014-Jul-24 17:31N 34°30' E 033°19'3 2.8
2014-Jul-24 16:33N 34°30' E 033°22'7 7.4
2014-Jul-24 15:33N 34°31' E 033°31'0 0.3
2014-Jul-24 14:24N 34°32' E 033°31'4 1.7
2014-Jul-24 12:12N 34°31' E 033°27'2 1.4
2014-Jul-24 10:30N 34°31' E 033°24'1 1.2
2014-Jul-24 09:24N 34°30' E 033°23'1 1.0
2014-Jul-24 08:30N 34°30' E 033°22'1 0.8
2014-Jul-24 07:33N 34°29' E 033°21'1 0.6
2014-Jul-24 06:33N 34°29' E 033°20'1 1.3
2014-Jul-24 05:31N 34°28' E 033°19'7 7.7
2014-Jul-24 04:33N 34°26' E 033°10'1211.9
2014-Jul-24 03:33N 34°25' E 032°56'1311.6
2014-Jul-24 02:28N 34°25' E 032°41'1111.7
2014-Jul-24 01:33N 34°25' E 032°28'1211.8
2014-Jul-24 00:33N 34°28' E 032°14'17212.1
2014-Jul-23 10:21N 35°22' E 028°55'2111.8
2014-Jul-23 08:33N 35°29' E 028°30'1211.8
2014-Jul-23 07:30N 35°32' E 028°15'1111.4
2014-Jul-23 06:33N 35°36' E 028°03'1211.4
2014-Jul-23 05:30N 35°39' E 027°49'2611.8
2014-Jul-23 03:17N 35°56' E 027°24'2112.0
2014-Jul-23 01:31N 36°11' E 027°06'1211.9
2014-Jul-23 00:30N 36°20' E 026°55'1211.8
2014-Jul-22 23:27N 36°30' E 026°46'1111.9
2014-Jul-22 22:29N 36°39' E 026°38'1111.7
2014-Jul-22 21:32N 36°47' E 026°28'1412.0
2014-Jul-22 20:22N 36°55' E 026°14'911.6
2014-Jul-22 19:33N 37°04' E 026°09'1211.6
2014-Jul-22 18:33N 37°15' E 026°04'1211.8
2014-Jul-22 17:33N 37°24' E 025°54'1211.8
2014-Jul-22 16:33N 37°34' E 025°46'1212.0
2014-Jul-22 15:33N 37°45' E 025°42'1211.7
2014-Jul-22 14:33N 37°56' E 025°37'1211.9
2014-Jul-22 13:32N 38°08' E 025°32'1211.8
2014-Jul-22 12:33N 38°18' E 025°26'1212.0
2014-Jul-22 11:33N 38°29' E 025°19'1511.8
2014-Jul-22 10:19N 38°43' E 025°23'6012.0
2014-Jul-22 05:18N 39°41' E 025°45'912.2
2014-Jul-22 04:33N 39°50' E 025°48'1312.3
2014-Jul-22 03:31N 40°00' E 025°57'1212.1
2014-Jul-22 02:33N 40°02' E 026°13'1210.0
2014-Jul-22 01:19N 40°12' E 026°23'1212.5
2014-Jul-22 00:20N 40°19' E 026°36'1310.0
2014-Jul-21 23:05N 40°27' E 026°48'  

Dump ship's entire track history